owner,sensor,date,latitude,longitude,vertical_datum,sea_water_practical_salinity,qcFlag 
TABS,ioos:station:wmo:42049:1,2015-07-01T00:00:00Z,28.3507,-96.0058,2.0,27.764,11111222 
TABS,ioos:station:wmo:42049:1,2015-07-01T01:00:00Z,28.3507,-96.0058,2.0,27.9529,11111222 
TABS,ioos:station:wmo:42049:1,2015-07-01T02:00:00Z,28.3507,-96.0058,2.0,28.1518,11111222 
TABS,ioos:station:wmo:42049:1,2015-07-01T05:00:00Z,28.3507,-96.0058,2.0,28.2854,11111222 
TABS,ioos:station:wmo:42049:1,2015-07-01T13:30:00Z,28.3507,-96.0058,2.0,29.9246,11111222 
TABS,ioos:station:wmo:42049:1,2015-07-01T14:00:00Z,28.3507,-96.0058,2.0,29.8276,11111222 
TABS,ioos:station:wmo:42049:1,2015-07-01T15:00:00Z,28.3507,-96.0058,2.0,29.8238,11111222 
TABS,ioos:station:wmo:42049:1,2015-07-01T16:00:00Z,28.3507,-96.0058,2.0,29.9392,11111222 
TABS,ioos:station:wmo:42049:1,2015-07-01T16:30:00Z,28.3507,-96.0058,2.0,29.98,11111222 
TABS,ioos:station:wmo:42049:1,2015-07-01T17:00:00Z,28.3507,-96.0058,2.0,30.0956,11111222 
TABS,ioos:station:wmo:42049:1,2015-07-01T22:30:00Z,28.3507,-96.0058,2.0,30.5171,11111222 
TABS,ioos:station:wmo:42049:1,2015-07-01T23:00:00Z,28.3507,-96.0058,2.0,30.5278,11111222 
TABS,ioos:station:wmo:42049:1,2015-07-02T00:00:00Z,28.3507,-96.0058,2.0,30.5117,11111222 
TABS,ioos:station:wmo:42049:1,2015-07-02T10:30:00Z,28.3507,-96.0058,2.0,30.7062,11111222 
TABS,ioos:station:wmo:42049:1,2015-07-02T11:00:00Z,28.3507,-96.0058,2.0,30.7329,11111222 
TABS,ioos:station:wmo:42049:1,2015-07-03T10:30:00Z,28.3507,-96.0058,2.0,31.175,11111222 
TABS,ioos:station:wmo:42049:1,2015-07-03T11:00:00Z,28.3507,-96.0058,2.0,31.2792,11111222 
TABS,ioos:station:wmo:42049:1,2015-07-03T11:30:00Z,28.3507,-96.0058,2.0,31.3881,11111222 
TABS,ioos:station:wmo:42049:1,2015-07-03T16:30:00Z,28.3507,-96.0058,2.0,31.5053,11111222 
TABS,ioos:station:wmo:42049:1,2015-07-03T17:00:00Z,28.3507,-96.0058,2.0,31.394,11111222 
TABS,ioos:station:wmo:42049:1,2015-07-04T03:30:00Z,28.3507,-96.0058,2.0,29.5996,11111222 
TABS,ioos:station:wmo:42049:1,2015-07-04T04:00:00Z,28.3507,-96.0058,2.0,29.5658,11111222 
TABS,ioos:station:wmo:42049:1,2015-07-04T05:30:00Z,28.3507,-96.0058,2.0,30.0829,11111222 
TABS,ioos:station:wmo:42049:1,2015-07-04T06:00:00Z,28.3507,-96.0058,2.0,30.2393,11111222 
TABS,ioos:station:wmo:42049:1,2015-07-04T12:30:00Z,28.3507,-96.0058,2.0,31.6611,11111222 
TABS,ioos:station:wmo:42049:1,2015-07-04T13:00:00Z,28.3507,-96.0058,2.0,31.7634,11111222 
TABS,ioos:station:wmo:42049:1,2015-07-04T15:30:00Z,28.3507,-96.0058,2.0,32.2413,11111222 
TABS,ioos:station:wmo:42049:1,2015-07-04T16:00:00Z,28.3507,-96.0058,2.0,32.4897,11111222 
TABS,ioos:station:wmo:42049:1,2015-07-04T17:30:00Z,28.3507,-96.0058,2.0,32.9178,11111222 
TABS,ioos:station:wmo:42049:1,2015-07-04T18:00:00Z,28.3507,-96.0058,2.0,33.0466,11111222 
TABS,ioos:station:wmo:42049:1,2015-07-05T00:30:00Z,28.3507,-96.0058,2.0,33.3718,11111222 
TABS,ioos:station:wmo:42049:1,2015-07-05T01:00:00Z,28.3507,-96.0058,2.0,33.3816,11111222 
TABS,ioos:station:wmo:42049:1,2015-07-05T02:30:00Z,28.3507,-96.0058,2.0,33.4803,11111222 
TABS,ioos:station:wmo:42049:1,2015-07-05T03:00:00Z,28.3507,-96.0058,2.0,33.5133,11111222 
TABS,ioos:station:wmo:42049:1,2015-07-05T09:30:00Z,28.3507,-96.0058,2.0,33.5809,11111222 
TABS,ioos:station:wmo:42049:1,2015-07-05T10:00:00Z,28.3507,-96.0058,2.0,33.584,11111222 
TABS,ioos:station:wmo:42049:1,2015-07-05T15:30:00Z,28.3507,-96.0058,2.0,33.7539,11111222 
TABS,ioos:station:wmo:42049:1,2015-07-06T01:30:00Z,28.3507,-96.0058,2.0,33.9525,11111222 
TABS,ioos:station:wmo:42049:1,2015-07-06T02:00:00Z,28.3507,-96.0058,2.0,33.9691,11111222 
TABS,ioos:station:wmo:42049:1,2015-07-06T05:30:00Z,28.3507,-96.0058,2.0,34.0043,11111222 
TABS,ioos:station:wmo:42049:1,2015-07-06T06:00:00Z,28.3507,-96.0058,2.0,34.0102,11111222 
TABS,ioos:station:wmo:42049:1,2015-07-06T09:30:00Z,28.3507,-96.0058,2.0,34.0203,11111222 
TABS,ioos:station:wmo:42049:1,2015-07-06T23:30:00Z,28.3507,-96.0058,2.0,33.5044,11111222 
TABS,ioos:station:wmo:42049:1,2015-07-07T00:00:00Z,28.3507,-96.0058,2.0,33.5334,11111222 
TABS,ioos:station:wmo:42049:1,2015-07-07T07:30:00Z,28.3507,-96.0058,2.0,32.3081,11111222 
TABS,ioos:station:wmo:42049:1,2015-07-07T08:00:00Z,28.3507,-96.0058,2.0,32.2675,11111222 
TABS,ioos:station:wmo:42049:1,2015-07-07T14:30:00Z,28.3507,-96.0058,2.0,32.2864,11111222 
TABS,ioos:station:wmo:42049:1,2015-07-07T15:00:00Z,28.3507,-96.0058,2.0,32.3115,11111222 
TABS,ioos:station:wmo:42049:1,2015-07-07T23:30:00Z,28.3507,-96.0058,2.0,32.2227,11111222 
TABS,ioos:station:wmo:42049:1,2015-07-08T00:00:00Z,28.3507,-96.0058,2.0,32.2169,11111222 
TABS,ioos:station:wmo:42049:1,2015-07-08T05:30:00Z,28.3507,-96.0058,2.0,32.1314,11111222 
TABS,ioos:station:wmo:42049:1,2015-07-08T06:00:00Z,28.3507,-96.0058,2.0,32.1494,11111222 
TABS,ioos:station:wmo:42049:1,2015-07-08T10:30:00Z,28.3507,-96.0058,2.0,32.2345,11111222 
TABS,ioos:station:wmo:42049:1,2015-07-08T11:00:00Z,28.3507,-96.0058,2.0,32.1743,11111222 
TABS,ioos:station:wmo:42049:1,2015-07-08T12:30:00Z,28.3507,-96.0058,2.0,31.9846,11111222 
TABS,ioos:station:wmo:42049:1,2015-07-08T13:00:00Z,28.3507,-96.0058,2.0,31.9923,11111222 
TABS,ioos:station:wmo:42049:1,2015-07-08T21:30:00Z,28.3507,-96.0058,2.0,32.7359,11111222 
TABS,ioos:station:wmo:42049:1,2015-07-08T22:00:00Z,28.3507,-96.0058,2.0,32.8023,11111222 
TABS,ioos:station:wmo:42049:1,2015-07-09T02:30:00Z,28.3507,-96.0058,2.0,32.9482,11111222 
TABS,ioos:station:wmo:42049:1,2015-07-09T10:30:00Z,28.3507,-96.0058,2.0,33.3541,11111222 
TABS,ioos:station:wmo:42049:1,2015-07-09T11:00:00Z,28.3507,-96.0058,2.0,33.2936,11111222 
TABS,ioos:station:wmo:42049:1,2015-07-09T11:30:00Z,28.3507,-96.0058,2.0,33.2885,11111222 
TABS,ioos:station:wmo:42049:1,2015-07-09T22:00:00Z,28.3507,-96.0058,2.0,33.2266,11111222 
TABS,ioos:station:wmo:42049:1,2015-07-09T23:00:00Z,28.3507,-96.0058,2.0,33.2155,11111222 
TABS,ioos:station:wmo:42049:1,2015-07-10T04:30:00Z,28.3507,-96.0058,2.0,33.2755,11111222 
TABS,ioos:station:wmo:42049:1,2015-07-10T05:00:00Z,28.3507,-96.0058,2.0,33.2895,11111222 
TABS,ioos:station:wmo:42049:1,2015-07-10T09:30:00Z,28.3507,-96.0058,2.0,33.7205,11111222 
TABS,ioos:station:wmo:42049:1,2015-07-10T10:00:00Z,28.3507,-96.0058,2.0,33.7767,11111222 
TABS,ioos:station:wmo:42049:1,2015-07-10T11:30:00Z,28.3507,-96.0058,2.0,33.866,11111222 
TABS,ioos:station:wmo:42049:1,2015-07-10T12:00:00Z,28.3507,-96.0058,2.0,33.8745,11111222 
TABS,ioos:station:wmo:42049:1,2015-07-10T15:30:00Z,28.3507,-96.0058,2.0,33.7953,11111222 
TABS,ioos:station:wmo:42049:1,2015-07-10T16:00:00Z,28.3507,-96.0058,2.0,33.7478,11111222 
TABS,ioos:station:wmo:42049:1,2015-07-10T17:30:00Z,28.3507,-96.0058,2.0,33.6782,11111222 
TABS,ioos:station:wmo:42049:1,2015-07-10T18:00:00Z,28.3507,-96.0058,2.0,33.6471,11111222 
TABS,ioos:station:wmo:42049:1,2015-07-10T21:30:00Z,28.3507,-96.0058,2.0,33.5454,11111222 
TABS,ioos:station:wmo:42049:1,2015-07-10T22:00:00Z,28.3507,-96.0058,2.0,33.5313,11111222 
TABS,ioos:station:wmo:42049:1,2015-07-10T22:30:00Z,28.3507,-96.0058,2.0,33.5238,11111222 
TABS,ioos:station:wmo:42049:1,2015-07-11T00:00:00Z,28.3507,-96.0058,2.0,33.523,11111222 
TABS,ioos:station:wmo:42049:1,2015-07-11T01:00:00Z,28.3507,-96.0058,2.0,33.6472,11111222 
TABS,ioos:station:wmo:42049:1,2015-07-11T10:00:00Z,28.3507,-96.0058,2.0,32.5144,11111222 
TABS,ioos:station:wmo:42049:1,2015-07-11T17:30:00Z,28.3507,-96.0058,2.0,32.4283,11111222 
TABS,ioos:station:wmo:42049:1,2015-07-11T18:00:00Z,28.3507,-96.0058,2.0,32.4415,11111222 
TABS,ioos:station:wmo:42049:1,2015-07-11T18:30:00Z,28.3507,-96.0058,2.0,32.3843,11111222 
TABS,ioos:station:wmo:42049:1,2015-07-11T19:00:00Z,28.3507,-96.0058,2.0,32.3633,11111222 
TABS,ioos:station:wmo:42049:1,2015-07-11T20:00:00Z,28.3507,-96.0058,2.0,32.5186,11111222 
TABS,ioos:station:wmo:42049:1,2015-07-11T21:00:00Z,28.3507,-96.0058,2.0,33.1776,11111222 
TABS,ioos:station:wmo:42049:1,2015-07-12T21:30:00Z,28.3507,-96.0058,2.0,31.886,11111222 
TABS,ioos:station:wmo:42049:1,2015-07-12T22:00:00Z,28.3507,-96.0058,2.0,31.8345,11111222 
TABS,ioos:station:wmo:42049:1,2015-07-12T23:00:00Z,28.3507,-96.0058,2.0,31.7714,11111222 
TABS,ioos:station:wmo:42049:1,2015-07-12T23:30:00Z,28.3507,-96.0058,2.0,31.7403,11111222 
TABS,ioos:station:wmo:42049:1,2015-07-13T00:00:00Z,28.3507,-96.0058,2.0,31.7469,11111222 
TABS,ioos:station:wmo:42049:1,2015-07-13T00:30:00Z,28.3507,-96.0058,2.0,31.7492,11111222 
TABS,ioos:station:wmo:42049:1,2015-07-13T01:00:00Z,28.3507,-96.0058,2.0,31.7104,11111222 
TABS,ioos:station:wmo:42049:1,2015-07-13T02:00:00Z,28.3507,-96.0058,2.0,31.7711,11111222 
TABS,ioos:station:wmo:42049:1,2015-07-13T03:00:00Z,28.3507,-96.0058,2.0,31.8425,11111222 
TABS,ioos:station:wmo:42049:1,2015-07-13T03:30:00Z,28.3507,-96.0058,2.0,31.9468,11111222 
TABS,ioos:station:wmo:42049:1,2015-07-13T04:00:00Z,28.3507,-96.0058,2.0,32.1767,11111222 
TABS,ioos:station:wmo:42049:1,2015-07-13T04:30:00Z,28.3507,-96.0058,2.0,32.2736,11111222 
TABS,ioos:station:wmo:42049:1,2015-07-13T05:00:00Z,28.3507,-96.0058,2.0,32.3523,11111222 
TABS,ioos:station:wmo:42049:1,2015-07-13T05:30:00Z,28.3507,-96.0058,2.0,32.3435,11111222 
TABS,ioos:station:wmo:42049:1,2015-07-13T06:00:00Z,28.3507,-96.0058,2.0,32.385,11111222 
TABS,ioos:station:wmo:42049:1,2015-07-13T06:30:00Z,28.3507,-96.0058,2.0,32.4935,11111222 
TABS,ioos:station:wmo:42049:1,2015-07-13T07:00:00Z,28.3507,-96.0058,2.0,32.6764,11111222 
TABS,ioos:station:wmo:42049:1,2015-07-13T07:30:00Z,28.3507,-96.0058,2.0,32.7848,11111222 
TABS,ioos:station:wmo:42049:1,2015-07-13T08:00:00Z,28.3507,-96.0058,2.0,32.887,11111222 
TABS,ioos:station:wmo:42049:1,2015-07-13T08:30:00Z,28.3507,-96.0058,2.0,33.0009,11111222 
TABS,ioos:station:wmo:42049:1,2015-07-13T09:00:00Z,28.3507,-96.0058,2.0,33.095,11111222 
TABS,ioos:station:wmo:42049:1,2015-07-13T09:30:00Z,28.3507,-96.0058,2.0,33.0594,11111222 
TABS,ioos:station:wmo:42049:1,2015-07-13T10:00:00Z,28.3507,-96.0058,2.0,33.0438,11111222 
TABS,ioos:station:wmo:42049:1,2015-07-13T10:30:00Z,28.3507,-96.0058,2.0,33.1198,11111222 
TABS,ioos:station:wmo:42049:1,2015-07-13T11:00:00Z,28.3507,-96.0058,2.0,33.1083,11111222 
TABS,ioos:station:wmo:42049:1,2015-07-13T11:30:00Z,28.3507,-96.0058,2.0,33.1428,11111222 
TABS,ioos:station:wmo:42049:1,2015-07-13T12:00:00Z,28.3507,-96.0058,2.0,33.163,11111222 
TABS,ioos:station:wmo:42049:1,2015-07-13T13:00:00Z,28.3507,-96.0058,2.0,33.1263,11111222 
TABS,ioos:station:wmo:42049:1,2015-07-13T13:30:00Z,28.3507,-96.0058,2.0,33.1392,11111222 
TABS,ioos:station:wmo:42049:1,2015-07-13T14:00:00Z,28.3507,-96.0058,2.0,32.9633,11111222 
TABS,ioos:station:wmo:42049:1,2015-07-13T14:30:00Z,28.3507,-96.0058,2.0,32.8023,11111222 
TABS,ioos:station:wmo:42049:1,2015-07-13T15:00:00Z,28.3507,-96.0058,2.0,32.6895,11111222 
TABS,ioos:station:wmo:42049:1,2015-07-13T15:30:00Z,28.3507,-96.0058,2.0,32.6276,11111222 
TABS,ioos:station:wmo:42049:1,2015-07-13T16:00:00Z,28.3507,-96.0058,2.0,32.6081,11111222 
TABS,ioos:station:wmo:42049:1,2015-07-13T17:00:00Z,28.3507,-96.0058,2.0,32.545,11111222 
TABS,ioos:station:wmo:42049:1,2015-07-13T17:30:00Z,28.3507,-96.0058,2.0,32.3795,11111222 
TABS,ioos:station:wmo:42049:1,2015-07-13T18:00:00Z,28.3507,-96.0058,2.0,32.3345,11111222 
TABS,ioos:station:wmo:42049:1,2015-07-13T18:30:00Z,28.3507,-96.0058,2.0,32.3029,11111222 
TABS,ioos:station:wmo:42049:1,2015-07-13T19:00:00Z,28.3507,-96.0058,2.0,32.3121,11111222 
TABS,ioos:station:wmo:42049:1,2015-07-13T20:00:00Z,28.3507,-96.0058,2.0,32.2907,11111222 
TABS,ioos:station:wmo:42049:1,2015-07-13T20:30:00Z,28.3507,-96.0058,2.0,32.2983,11111222 
TABS,ioos:station:wmo:42049:1,2015-07-13T21:00:00Z,28.3507,-96.0058,2.0,32.2902,11111222 
TABS,ioos:station:wmo:42049:1,2015-07-13T21:30:00Z,28.3507,-96.0058,2.0,32.3359,11111222 
TABS,ioos:station:wmo:42049:1,2015-07-13T22:00:00Z,28.3507,-96.0058,2.0,32.337,11111222 
TABS,ioos:station:wmo:42049:1,2015-07-13T22:30:00Z,28.3507,-96.0058,2.0,32.3432,11111222 
TABS,ioos:station:wmo:42049:1,2015-07-13T23:00:00Z,28.3507,-96.0058,2.0,32.3789,11111222 
TABS,ioos:station:wmo:42049:1,2015-07-13T23:30:00Z,28.3507,-96.0058,2.0,32.3699,11111222 
TABS,ioos:station:wmo:42049:1,2015-07-14T00:00:00Z,28.3507,-96.0058,2.0,32.3825,11111222 
TABS,ioos:station:wmo:42049:1,2015-07-14T00:30:00Z,28.3507,-96.0058,2.0,32.2469,11111222 
TABS,ioos:station:wmo:42049:1,2015-07-14T01:00:00Z,28.3507,-96.0058,2.0,32.226,11111222 
TABS,ioos:station:wmo:42049:1,2015-07-14T01:30:00Z,28.3507,-96.0058,2.0,32.1851,11111222 
TABS,ioos:station:wmo:42049:1,2015-07-14T02:00:00Z,28.3507,-96.0058,2.0,32.1685,11111222 
TABS,ioos:station:wmo:42049:1,2015-07-14T02:30:00Z,28.3507,-96.0058,2.0,32.1679,11111222 
TABS,ioos:station:wmo:42049:1,2015-07-14T03:00:00Z,28.3507,-96.0058,2.0,32.341,11111222 
TABS,ioos:station:wmo:42049:1,2015-07-14T03:30:00Z,28.3507,-96.0058,2.0,32.3909,11111222 
TABS,ioos:station:wmo:42049:1,2015-07-14T04:00:00Z,28.3507,-96.0058,2.0,32.4497,11111222 
TABS,ioos:station:wmo:42049:1,2015-07-14T04:30:00Z,28.3507,-96.0058,2.0,32.4357,11111222 
TABS,ioos:station:wmo:42049:1,2015-07-14T05:00:00Z,28.3507,-96.0058,2.0,32.467,11111222 
TABS,ioos:station:wmo:42049:1,2015-07-14T05:30:00Z,28.3507,-96.0058,2.0,32.511,11111222 
TABS,ioos:station:wmo:42049:1,2015-07-14T06:00:00Z,28.3507,-96.0058,2.0,32.5387,11111222 
TABS,ioos:station:wmo:42049:1,2015-07-14T06:30:00Z,28.3507,-96.0058,2.0,32.5691,11111222 
TABS,ioos:station:wmo:42049:1,2015-07-14T07:00:00Z,28.3507,-96.0058,2.0,32.5911,11111222 
TABS,ioos:station:wmo:42049:1,2015-07-14T07:30:00Z,28.3507,-96.0058,2.0,32.6181,11111222 
TABS,ioos:station:wmo:42049:1,2015-07-14T08:00:00Z,28.3507,-96.0058,2.0,32.6217,11111222 
TABS,ioos:station:wmo:42049:1,2015-07-14T12:30:00Z,28.3507,-96.0058,2.0,32.9525,11111222 
TABS,ioos:station:wmo:42049:1,2015-07-14T13:00:00Z,28.3507,-96.0058,2.0,33.0156,11111222 
TABS,ioos:station:wmo:42049:1,2015-07-14T13:30:00Z,28.3507,-96.0058,2.0,33.0663,11111222 
TABS,ioos:station:wmo:42049:1,2015-07-14T14:00:00Z,28.3507,-96.0058,2.0,33.1234,11111222 
TABS,ioos:station:wmo:42049:1,2015-07-14T14:30:00Z,28.3507,-96.0058,2.0,33.1668,11111222 
TABS,ioos:station:wmo:42049:1,2015-07-14T15:00:00Z,28.3507,-96.0058,2.0,33.2051,11111222 
TABS,ioos:station:wmo:42049:1,2015-07-14T15:30:00Z,28.3507,-96.0058,2.0,33.2555,11111222 
TABS,ioos:station:wmo:42049:1,2015-07-14T16:00:00Z,28.3507,-96.0058,2.0,33.3151,11111222 
TABS,ioos:station:wmo:42049:1,2015-07-14T16:30:00Z,28.3507,-96.0058,2.0,33.3552,11111222 
TABS,ioos:station:wmo:42049:1,2015-07-14T17:00:00Z,28.3507,-96.0058,2.0,33.4317,11111222 
TABS,ioos:station:wmo:42049:1,2015-07-14T18:00:00Z,28.3507,-96.0058,2.0,33.5281,11111222 
TABS,ioos:station:wmo:42049:1,2015-07-14T19:00:00Z,28.3507,-96.0058,2.0,33.637,11111222 
TABS,ioos:station:wmo:42049:1,2015-07-14T19:30:00Z,28.3507,-96.0058,2.0,33.7719,11111222 
TABS,ioos:station:wmo:42049:1,2015-07-14T20:00:00Z,28.3507,-96.0058,2.0,33.8305,11111222 
TABS,ioos:station:wmo:42049:1,2015-07-14T20:30:00Z,28.3507,-96.0058,2.0,33.776,11111222 
TABS,ioos:station:wmo:42049:1,2015-07-14T21:00:00Z,28.3507,-96.0058,2.0,33.9283,11111222 
TABS,ioos:station:wmo:42049:1,2015-07-14T21:30:00Z,28.3507,-96.0058,2.0,33.7118,11111222 
TABS,ioos:station:wmo:42049:1,2015-07-14T22:00:00Z,28.3507,-96.0058,2.0,33.6826,11111222 
TABS,ioos:station:wmo:42049:1,2015-07-14T22:30:00Z,28.3507,-96.0058,2.0,33.6579,11111222 
TABS,ioos:station:wmo:42049:1,2015-07-14T23:00:00Z,28.3507,-96.0058,2.0,33.6419,11111222 
TABS,ioos:station:wmo:42049:1,2015-07-14T23:30:00Z,28.3507,-96.0058,2.0,33.6494,11111222 
TABS,ioos:station:wmo:42049:1,2015-07-15T00:00:00Z,28.3507,-96.0058,2.0,33.6358,11111222 
TABS,ioos:station:wmo:42049:1,2015-07-15T00:30:00Z,28.3507,-96.0058,2.0,33.6738,11111222 
TABS,ioos:station:wmo:42049:1,2015-07-15T01:00:00Z,28.3507,-96.0058,2.0,33.7683,11111222 
TABS,ioos:station:wmo:42049:1,2015-07-15T01:30:00Z,28.3507,-96.0058,2.0,33.8855,11111222 
TABS,ioos:station:wmo:42049:1,2015-07-15T02:00:00Z,28.3507,-96.0058,2.0,34.0278,11111222 
TABS,ioos:station:wmo:42049:1,2015-07-15T02:30:00Z,28.3507,-96.0058,2.0,34.0306,11111222 
TABS,ioos:station:wmo:42049:1,2015-07-15T03:00:00Z,28.3507,-96.0058,2.0,34.0316,11111222 
TABS,ioos:station:wmo:42049:1,2015-07-15T03:30:00Z,28.3507,-96.0058,2.0,34.0324,11111222 
TABS,ioos:station:wmo:42049:1,2015-07-15T04:00:00Z,28.3507,-96.0058,2.0,34.0354,11111222 
TABS,ioos:station:wmo:42049:1,2015-07-15T04:30:00Z,28.3507,-96.0058,2.0,34.0392,11111222 
TABS,ioos:station:wmo:42049:1,2015-07-15T05:00:00Z,28.3507,-96.0058,2.0,34.0445,11111222 
TABS,ioos:station:wmo:42049:1,2015-07-15T05:30:00Z,28.3507,-96.0058,2.0,34.0388,11111222 
TABS,ioos:station:wmo:42049:1,2015-07-15T06:00:00Z,28.3507,-96.0058,2.0,34.0407,11111222 
TABS,ioos:station:wmo:42049:1,2015-07-15T06:30:00Z,28.3507,-96.0058,2.0,34.039,11111222 
TABS,ioos:station:wmo:42049:1,2015-07-15T07:00:00Z,28.3507,-96.0058,2.0,34.0329,11111222 
TABS,ioos:station:wmo:42049:1,2015-07-15T07:30:00Z,28.3507,-96.0058,2.0,34.035,11111222 
TABS,ioos:station:wmo:42049:1,2015-07-15T08:00:00Z,28.3507,-96.0058,2.0,34.0356,11111222 
TABS,ioos:station:wmo:42049:1,2015-07-15T08:30:00Z,28.3507,-96.0058,2.0,34.0366,11111222 
TABS,ioos:station:wmo:42049:1,2015-07-15T09:00:00Z,28.3507,-96.0058,2.0,34.0376,11111222 
TABS,ioos:station:wmo:42049:1,2015-07-15T09:30:00Z,28.3507,-96.0058,2.0,34.0377,11111222 
TABS,ioos:station:wmo:42049:1,2015-07-15T10:00:00Z,28.3507,-96.0058,2.0,34.0416,11111222 
TABS,ioos:station:wmo:42049:1,2015-07-15T10:30:00Z,28.3507,-96.0058,2.0,34.0444,11111222 
TABS,ioos:station:wmo:42049:1,2015-07-15T11:00:00Z,28.3507,-96.0058,2.0,34.046,11111222 
TABS,ioos:station:wmo:42049:1,2015-07-15T11:30:00Z,28.3507,-96.0058,2.0,34.0637,11111222 
TABS,ioos:station:wmo:42049:1,2015-07-15T12:00:00Z,28.3507,-96.0058,2.0,34.0688,11111222 
TABS,ioos:station:wmo:42049:1,2015-07-15T12:30:00Z,28.3507,-96.0058,2.0,34.0787,11111222 
TABS,ioos:station:wmo:42049:1,2015-07-15T13:00:00Z,28.3507,-96.0058,2.0,34.0992,11111222 
TABS,ioos:station:wmo:42049:1,2015-07-15T13:30:00Z,28.3507,-96.0058,2.0,34.1102,11111222 
TABS,ioos:station:wmo:42049:1,2015-07-15T14:00:00Z,28.3507,-96.0058,2.0,34.1215,11111222 
TABS,ioos:station:wmo:42049:1,2015-07-15T14:30:00Z,28.3507,-96.0058,2.0,34.1566,11111222 
TABS,ioos:station:wmo:42049:1,2015-07-15T15:00:00Z,28.3507,-96.0058,2.0,34.1833,11111222 
TABS,ioos:station:wmo:42049:1,2015-07-15T15:30:00Z,28.3507,-96.0058,2.0,34.2579,11111222 
TABS,ioos:station:wmo:42049:1,2015-07-15T16:00:00Z,28.3507,-96.0058,2.0,34.349,11111222 
TABS,ioos:station:wmo:42049:1,2015-07-15T16:30:00Z,28.3507,-96.0058,2.0,34.4073,11111222 
TABS,ioos:station:wmo:42049:1,2015-07-15T17:00:00Z,28.3507,-96.0058,2.0,34.3299,11111222 
TABS,ioos:station:wmo:42049:1,2015-07-15T17:30:00Z,28.3507,-96.0058,2.0,33.7916,11111222 
TABS,ioos:station:wmo:42049:1,2015-07-15T18:00:00Z,28.3507,-96.0058,2.0,34.312,11111222 
TABS,ioos:station:wmo:42049:1,2015-07-15T18:30:00Z,28.3507,-96.0058,2.0,34.3124,11111222 
TABS,ioos:station:wmo:42049:1,2015-07-15T19:00:00Z,28.3507,-96.0058,2.0,34.3663,11111222 
TABS,ioos:station:wmo:42049:1,2015-07-15T19:30:00Z,28.3507,-96.0058,2.0,34.353,11111222 
TABS,ioos:station:wmo:42049:1,2015-07-15T20:00:00Z,28.3507,-96.0058,2.0,34.341,11111222 
TABS,ioos:station:wmo:42049:1,2015-07-15T20:30:00Z,28.3507,-96.0058,2.0,34.3657,11111222 
TABS,ioos:station:wmo:42049:1,2015-07-15T21:00:00Z,28.3507,-96.0058,2.0,34.338,11111222 
TABS,ioos:station:wmo:42049:1,2015-07-15T21:30:00Z,28.3507,-96.0058,2.0,34.3496,11111222 
TABS,ioos:station:wmo:42049:1,2015-07-15T22:00:00Z,28.3507,-96.0058,2.0,34.3498,11111222 
TABS,ioos:station:wmo:42049:1,2015-07-15T22:30:00Z,28.3507,-96.0058,2.0,34.3452,11111222 
TABS,ioos:station:wmo:42049:1,2015-07-15T23:00:00Z,28.3507,-96.0058,2.0,34.3302,11111222 
TABS,ioos:station:wmo:42049:1,2015-07-15T23:30:00Z,28.3507,-96.0058,2.0,34.3195,11111222 
TABS,ioos:station:wmo:42049:1,2015-07-16T00:00:00Z,28.3507,-96.0058,2.0,34.3115,11111222 
TABS,ioos:station:wmo:42049:1,2015-07-16T00:30:00Z,28.3507,-96.0058,2.0,34.3025,11111222 
TABS,ioos:station:wmo:42049:1,2015-07-16T01:00:00Z,28.3507,-96.0058,2.0,34.295,11111222 
TABS,ioos:station:wmo:42049:1,2015-07-16T01:30:00Z,28.3507,-96.0058,2.0,34.2856,11111222 
TABS,ioos:station:wmo:42049:1,2015-07-16T02:00:00Z,28.3507,-96.0058,2.0,34.2804,11111222 
TABS,ioos:station:wmo:42049:1,2015-07-16T02:30:00Z,28.3507,-96.0058,2.0,34.2766,11111222 
TABS,ioos:station:wmo:42049:1,2015-07-16T03:00:00Z,28.3507,-96.0058,2.0,34.2758,11111222 
TABS,ioos:station:wmo:42049:1,2015-07-16T03:30:00Z,28.3507,-96.0058,2.0,34.2722,11111222 
TABS,ioos:station:wmo:42049:1,2015-07-16T04:00:00Z,28.3507,-96.0058,2.0,34.2696,11111222 
TABS,ioos:station:wmo:42049:1,2015-07-16T04:30:00Z,28.3507,-96.0058,2.0,34.2676,11111222 
TABS,ioos:station:wmo:42049:1,2015-07-16T05:00:00Z,28.3507,-96.0058,2.0,34.2667,11111222 
TABS,ioos:station:wmo:42049:1,2015-07-16T05:30:00Z,28.3507,-96.0058,2.0,34.2665,11111222 
TABS,ioos:station:wmo:42049:1,2015-07-16T06:00:00Z,28.3507,-96.0058,2.0,34.2735,11111222 
TABS,ioos:station:wmo:42049:1,2015-07-16T06:30:00Z,28.3507,-96.0058,2.0,34.2813,11111222 
TABS,ioos:station:wmo:42049:1,2015-07-16T07:00:00Z,28.3507,-96.0058,2.0,34.2885,11111222 
TABS,ioos:station:wmo:42049:1,2015-07-16T07:30:00Z,28.3507,-96.0058,2.0,34.3033,11111222 
TABS,ioos:station:wmo:42049:1,2015-07-16T08:00:00Z,28.3507,-96.0058,2.0,34.3153,11111222 
TABS,ioos:station:wmo:42049:1,2015-07-16T08:30:00Z,28.3507,-96.0058,2.0,34.3701,11111222 
TABS,ioos:station:wmo:42049:1,2015-07-16T09:00:00Z,28.3507,-96.0058,2.0,34.3892,11111222 
TABS,ioos:station:wmo:42049:1,2015-07-16T09:30:00Z,28.3507,-96.0058,2.0,34.4455,11111222 
TABS,ioos:station:wmo:42049:1,2015-07-16T10:00:00Z,28.3507,-96.0058,2.0,34.4402,11111222 
TABS,ioos:station:wmo:42049:1,2015-07-16T10:30:00Z,28.3507,-96.0058,2.0,34.4314,11111222 
TABS,ioos:station:wmo:42049:1,2015-07-16T11:00:00Z,28.3507,-96.0058,2.0,34.4307,11111222 
TABS,ioos:station:wmo:42049:1,2015-07-16T11:30:00Z,28.3507,-96.0058,2.0,34.4469,11111222 
TABS,ioos:station:wmo:42049:1,2015-07-16T12:00:00Z,28.3507,-96.0058,2.0,34.4603,11111222 
TABS,ioos:station:wmo:42049:1,2015-07-16T12:30:00Z,28.3507,-96.0058,2.0,34.4775,11111222 
TABS,ioos:station:wmo:42049:1,2015-07-16T13:00:00Z,28.3507,-96.0058,2.0,34.4907,11111222 
TABS,ioos:station:wmo:42049:1,2015-07-16T13:30:00Z,28.3507,-96.0058,2.0,34.5298,11111222 
TABS,ioos:station:wmo:42049:1,2015-07-16T14:00:00Z,28.3507,-96.0058,2.0,34.1254,11111222 
TABS,ioos:station:wmo:42049:1,2015-07-16T14:30:00Z,28.3507,-96.0058,2.0,34.5708,11111222 
TABS,ioos:station:wmo:42049:1,2015-07-16T15:00:00Z,28.3507,-96.0058,2.0,34.5473,11111222 
TABS,ioos:station:wmo:42049:1,2015-07-16T15:30:00Z,28.3507,-96.0058,2.0,34.4598,11111222 
TABS,ioos:station:wmo:42049:1,2015-07-16T16:00:00Z,28.3507,-96.0058,2.0,34.2567,11111222 
TABS,ioos:station:wmo:42049:1,2015-07-16T16:30:00Z,28.3507,-96.0058,2.0,34.1186,11111222 
TABS,ioos:station:wmo:42049:1,2015-07-16T17:00:00Z,28.3507,-96.0058,2.0,34.1088,11111222 
TABS,ioos:station:wmo:42049:1,2015-07-16T17:30:00Z,28.3507,-96.0058,2.0,33.948,11111222 
TABS,ioos:station:wmo:42049:1,2015-07-16T18:00:00Z,28.3507,-96.0058,2.0,33.8893,11111222 
TABS,ioos:station:wmo:42049:1,2015-07-16T18:30:00Z,28.3507,-96.0058,2.0,33.8594,11111222 
TABS,ioos:station:wmo:42049:1,2015-07-16T19:00:00Z,28.3507,-96.0058,2.0,33.7881,11111222 
TABS,ioos:station:wmo:42049:1,2015-07-16T19:30:00Z,28.3507,-96.0058,2.0,33.9296,11111222 
TABS,ioos:station:wmo:42049:1,2015-07-16T20:00:00Z,28.3507,-96.0058,2.0,33.8425,11111222 
TABS,ioos:station:wmo:42049:1,2015-07-16T20:30:00Z,28.3507,-96.0058,2.0,33.8199,11111222 
TABS,ioos:station:wmo:42049:1,2015-07-16T21:00:00Z,28.3507,-96.0058,2.0,33.7621,11111222 
TABS,ioos:station:wmo:42049:1,2015-07-16T21:30:00Z,28.3507,-96.0058,2.0,33.7929,11111222 
TABS,ioos:station:wmo:42049:1,2015-07-16T22:00:00Z,28.3507,-96.0058,2.0,33.8381,11111222 
TABS,ioos:station:wmo:42049:1,2015-07-16T22:30:00Z,28.3507,-96.0058,2.0,33.8689,11111222 
TABS,ioos:station:wmo:42049:1,2015-07-16T23:00:00Z,28.3507,-96.0058,2.0,33.9329,11111222 